Location: Allos
(44.2333°N, 6.6333°E)
Time: 13:10:43
(UTC+00:00)

Cosmos 2263 - Pass Details

Date: 01 December 2020
Orbit: 833 x 864 km, 70.9° (Epoch: 25 January)

Event Time Altitude Azimuth Distance (km) Brightness Sun altitude
Rises 17:12:46 0° 338° (NNW) 3,392 7.4 -13.4°
Reaches altitude 10° 17:15:18 10° 344° (NNW) 2,452 6.6 -13.8°
Maximum altitude 17:20:45 50° 59° (ENE) 1,056 4.3 -14.8°
Drops below altitude 10° 17:26:10 10° 135° (SE) 2,439 6.3 -15.7°
Sets 17:28:41 0° 140° (SE) 3,371 7.1 -16.1°
